Location: *
(42.5628°N, 2.3633°E)
Time: 20:39:04
(UTC+00:00)

Meteor 2-5 Rocket - Pass Details

Date: 30 March 2020
Orbit: 833 x 912 km, 81.2° (Epoch: 30 May)

Event Time Altitude Azimuth Distance (km) Brightness Sun altitude
Rises 19:06:54 0° 346° (NNW) 3,453 7.3 -10.3°
Reaches altitude 10° 19:09:23 10° 344° (NNW) 2,501 6.6 -10.7°
Maximum altitude 19:14:58 64° 264° (W) 933 4.2 -11.7°
Drops below altitude 10° 19:20:26 10° 184° (S) 2,444 6.0 -12.6°
Sets 19:22:50 0° 181° (S) 3,368 6.7 -13.1°
